Time,TemperatureF,DewpointF,PressureIn,WindDirection,WindDirectionDegrees,WindSpeedMPH,WindSpeedGustMPH,Humidity,HourlyPrecipIn,Conditions,Clouds,dailyrainin,SoftwareType,DateUTC
2013-03-13 00:00:00,39.9,11.8,29.42,NW,324,0.0,0.0,31,0.00,,---,0.00,VWS V13.01,2013-03-13 04:00:00,
2013-03-13 00:01:00,39.9,11.8,29.45,NW,324,0.0,0.0,31,0.00,,---,0.00,VWS V13.01,2013-03-13 04:01:00,
2013-03-13 00:03:00,39.9,11.8,29.45,NNW,335,0.0,0.0,31,0.00,,---,0.00,VWS V13.01,2013-03-13 04:03:00,
2013-03-13 00:08:00,39.7,16.8,29.45,NW,305,0.0,2.7,39,0.00,,---,0.00,VWS V13.01,2013-03-13 04:08:00,
2013-03-13 00:13:00,39.7,16.8,29.45,NNW,328,0.0,2.7,39,0.00,,---,0.00,VWS V13.01,2013-03-13 04:13:00,
2013-03-13 00:18:00,39.7,16.8,29.45,North,353,0.0,2.7,39,0.00,,---,0.00,VWS V13.01,2013-03-13 04:18:00,
2013-03-13 00:23:00,39.6,16.1,29.45,NNW,340,0.0,0.0,38,0.00,,---,0.00,VWS V13.01,2013-03-13 04:23:00,
2013-03-13 00:28:00,39.4,16.5,29.45,WNW,294,2.7,2.7,39,0.00,,---,0.00,VWS V13.01,2013-03-13 04:28:00,
2013-03-13 00:33:00,39.2,16.3,29.45,NNW,333,0.0,2.7,39,0.00,,---,0.00,VWS V13.01,2013-03-13 04:33:00,
2013-03-13 00:38:00,39.0,16.2,29.45,North,353,0.0,2.7,39,0.00,,---,0.00,VWS V13.01,2013-03-13 04:38:00,
2013-03-13 00:44:00,39.0,16.2,29.45,North,357,0.0,0.0,39,0.00,,---,0.00,VWS V13.01,2013-03-13 04:44:00,
2013-03-13 00:49:00,39.0,16.2,29.45,NNW,341,0.0,0.0,39,0.00,,---,0.00,VWS V13.01,2013-03-13 04:49:00,
2013-03-13 00:54:00,39.0,16.2,29.45,NW,311,0.0,0.0,39,0.00,,---,0.00,VWS V13.01,2013-03-13 04:54:00,
2013-03-13 00:59:00,39.0,16.2,29.45,North,353,0.0,0.0,39,0.00,,---,0.00,VWS V13.01,2013-03-13 04:59:00,
2013-03-13 01:04:00,38.1,15.4,29.45,NW,308,0.0,0.0,39,0.00,,---,0.00,VWS V13.01,2013-03-13 05:04:00,
2013-03-13 01:09:00,37.9,15.2,29.45,NNW,333,0.0,0.0,39,0.00,,---,0.00,VWS V13.01,2013-03-13 05:09:00,
2013-03-13 01:14:00,37.9,15.8,29.45,NNW,327,0.0,0.0,40,0.00,,---,0.00,VWS V13.01,2013-03-13 05:14:00,
2013-03-13 01:19:00,37.8,15.0,29.45,NNW,338,0.0,0.0,39,0.00,,---,0.00,VWS V13.01,2013-03-13 05:19:00,
2013-03-13 01:24:00,37.8,15.6,29.45,NW,324,0.0,0.0,40,0.00,,---,0.00,VWS V13.01,2013-03-13 05:24:00,
2013-03-13 01:29:00,37.6,15.5,29.45,North,349,0.0,0.0,40,0.00,,---,0.00,VWS V13.01,2013-03-13 05:29:00,
2013-03-13 01:34:00,37.4,14.7,29.45,NW,324,0.0,2.7,39,0.00,,---,0.00,VWS V13.01,2013-03-13 05:34:00,
2013-03-13 01:39:00,37.4,14.7,29.45,NW,304,0.0,2.7,39,0.00,,---,0.00,VWS V13.01,2013-03-13 05:39:00,
2013-03-13 01:45:00,37.4,14.7,29.45,NW,326,0.0,0.0,39,0.00,,---,0.00,VWS V13.01,2013-03-13 05:45:00,
2013-03-13 01:50:00,37.4,14.1,29.45,North,353,0.0,0.0,38,0.00,,---,0.00,VWS V13.01,2013-03-13 05:50:00,
2013-03-13 01:55:00,37.2,14.6,29.45,WNW,294,0.0,0.0,39,0.00,,---,0.00,VWS V13.01,2013-03-13 05:55:00,
2013-03-13 02:00:00,37.2,14.6,29.45,North,2,0.0,0.0,39,0.00,,---,0.00,VWS V13.01,2013-03-13 06:00:00,
2013-03-13 02:05:00,37.2,14.6,29.45,NW,307,0.0,0.0,39,0.00,,---,0.00,VWS V13.01,2013-03-13 06:05:00,
2013-03-13 02:10:00,37.2,14.0,29.45,NNW,327,0.0,2.7,38,0.00,,---,0.00,VWS V13.01,2013-03-13 06:10:00,
2013-03-13 02:15:00,37.2,13.4,29.48,NNW,348,0.0,2.7,37,0.00,,---,0.00,VWS V13.01,2013-03-13 06:15:00,
2013-03-13 02:20:00,37.0,12.6,29.48,NW,314,0.0,2.7,36,0.00,,---,0.00,VWS V13.01,2013-03-13 06:20:00,
2013-03-13 02:26:00,37.0,13.2,29.48,North,4,0.0,2.7,37,0.00,,---,0.00,VWS V13.01,2013-03-13 06:26:00,
2013-03-13 02:31:00,36.9,11.1,29.45,NNW,341,0.0,2.7,34,0.00,,---,0.00,VWS V13.01,2013-03-13 06:31:00,
2013-03-13 02:36:00,36.9,11.1,29.45,North,357,0.0,2.7,34,0.00,,---,0.00,VWS V13.01,2013-03-13 06:36:00,
2013-03-13 02:41:00,36.9,10.5,29.45,NW,307,0.0,0.0,33,0.00,,---,0.00,VWS V13.01,2013-03-13 06:41:00,
2013-03-13 02:47:00,36.7,9.6,29.45,WNW,302,0.0,0.0,32,0.00,,---,0.00,VWS V13.01,2013-03-13 06:47:00,
2013-03-13 02:52:00,36.9,9.8,29.45,NNW,345,0.0,0.0,32,0.00,,---,0.00,VWS V13.01,2013-03-13 06:52:00,
2013-03-13 02:57:00,36.9,9.8,29.45,North,353,0.0,0.0,32,0.00,,---,0.00,VWS V13.01,2013-03-13 06:57:00,
2013-03-13 03:02:00,36.7,9.6,29.45,North,357,0.0,0.0,32,0.00,,---,0.00,VWS V13.01,2013-03-13 07:02:00,
2013-03-13 03:07:00,36.5,9.5,29.45,North,357,0.0,0.0,32,0.00,,---,0.00,VWS V13.01,2013-03-13 07:07:00,
2013-03-13 03:12:00,36.5,9.5,29.45,NW,326,0.0,0.0,32,0.00,,---,0.00,VWS V13.01,2013-03-13 07:12:00,
2013-03-13 03:17:00,36.5,9.5,29.45,NW,321,0.0,0.0,32,0.00,,---,0.00,VWS V13.01,2013-03-13 07:17:00,
2013-03-13 03:22:00,36.5,9.5,29.45,NW,315,0.0,0.0,32,0.00,,---,0.00,VWS V13.01,2013-03-13 07:22:00,
2013-03-13 03:27:00,35.8,9.5,29.45,North,350,0.0,0.0,33,0.00,,---,0.00,VWS V13.01,2013-03-13 07:27:00,
2013-03-13 03:33:00,35.8,9.5,29.45,NW,307,0.0,0.0,33,0.00,,---,0.00,VWS V13.01,2013-03-13 07:33:00,
2013-03-13 03:38:00,35.8,8.8,29.45,WNW,286,0.0,0.0,32,0.00,,---,0.00,VWS V13.01,2013-03-13 07:38:00,
2013-03-13 03:43:00,35.6,9.4,29.45,NNW,334,0.0,0.0,33,0.00,,---,0.00,VWS V13.01,2013-03-13 07:43:00,
2013-03-13 03:48:00,35.6,8.7,29.48,NNW,334,0.0,0.0,32,0.00,,---,0.00,VWS V13.01,2013-03-13 07:48:00,
2013-03-13 03:53:00,35.4,9.2,29.48,WNW,303,0.0,0.0,33,0.00,,---,0.00,VWS V13.01,2013-03-13 07:53:00,
2013-03-13 03:58:00,35.2,9.0,29.48,NW,308,0.0,0.0,33,0.00,,---,0.00,VWS V13.01,2013-03-13 07:58:00,
2013-03-13 04:03:00,35.2,9.7,29.48,NNW,341,0.0,0.0,34,0.00,,---,0.00,VWS V13.01,2013-03-13 08:03:00,
2013-03-13 04:08:00,35.1,9.5,29.48,WNW,285,0.0,0.0,34,0.00,,---,0.00,VWS V13.01,2013-03-13 08:08:00,
2013-03-13 04:13:00,35.1,8.9,29.48,WNW,300,0.0,0.0,33,0.00,,---,0.00,VWS V13.01,2013-03-13 08:13:00,
2013-03-13 04:18:00,35.1,8.9,29.48,NNW,334,0.0,0.0,33,0.00,,---,0.00,VWS V13.01,2013-03-13 08:18:00,
2013-03-13 04:24:00,34.9,8.7,29.48,NW,315,0.0,0.0,33,0.00,,---,0.00,VWS V13.01,2013-03-13 08:24:00,
2013-03-13 04:29:00,34.7,8.6,29.48,NW,315,0.0,0.0,33,0.00,,---,0.00,VWS V13.01,2013-03-13 08:29:00,
2013-03-13 04:34:00,34.5,9.1,29.48,NW,315,0.0,0.0,34,0.00,,---,0.00,VWS V13.01,2013-03-13 08:34:00,
2013-03-13 04:39:00,34.5,9.1,29.48,NW,310,0.0,0.0,34,0.00,,---,0.00,VWS V13.01,2013-03-13 08:39:00,
2013-03-13 04:44:00,34.3,8.9,29.48,NW,310,0.0,0.0,34,0.00,,---,0.00,VWS V13.01,2013-03-13 08:44:00,
2013-03-13 04:49:00,34.0,9.2,29.48,NW,310,0.0,0.0,35,0.00,,---,0.00,VWS V13.01,2013-03-13 08:49:00,
2013-03-13 04:54:00,33.8,9.1,29.48,NW,311,0.0,0.0,35,0.00,,---,0.00,VWS V13.01,2013-03-13 08:54:00,
2013-03-13 04:59:00,33.6,9.5,29.48,NW,310,0.0,0.0,36,0.00,,---,0.00,VWS V13.01,2013-03-13 08:59:00,
2013-03-13 05:04:00,33.6,10.1,29.48,NW,321,0.0,0.0,37,0.00,,---,0.00,VWS V13.01,2013-03-13 09:04:00,
2013-03-13 05:09:00,33.4,10.0,29.48,NNW,327,0.0,0.0,37,0.00,,---,0.00,VWS V13.01,2013-03-13 09:09:00,
2013-03-13 05:15:00,33.4,10.6,29.48,WNW,299,0.0,0.0,38,0.00,,---,0.00,VWS V13.01,2013-03-13 09:15:00,
2013-03-13 05:20:00,33.6,10.7,29.48,NW,324,0.0,0.0,38,0.00,,---,0.00,VWS V13.01,2013-03-13 09:20:00,
2013-03-13 05:25:00,33.6,10.7,29.48,NW,324,0.0,0.0,38,0.00,,---,0.00,VWS V13.01,2013-03-13 09:25:00,
2013-03-13 05:30:00,33.6,10.7,29.48,NW,320,0.0,0.0,38,0.00,,---,0.00,VWS V13.01,2013-03-13 09:30:00,
2013-03-13 05:35:00,33.4,10.6,29.48,NW,316,0.0,0.0,38,0.00,,---,0.00,VWS V13.01,2013-03-13 09:35:00,
2013-03-13 05:40:00,33.4,10.6,29.48,NW,308,0.0,0.0,38,0.00,,---,0.00,VWS V13.01,2013-03-13 09:40:00,
2013-03-13 05:45:00,33.4,10.6,29.48,NW,311,0.0,0.0,38,0.00,,---,0.00,VWS V13.01,2013-03-13 09:45:00,
2013-03-13 05:50:00,33.4,10.6,29.48,NNW,329,0.0,0.0,38,0.00,,---,0.00,VWS V13.01,2013-03-13 09:50:00,
2013-03-13 05:55:00,33.3,10.4,29.48,NNW,329,0.0,0.0,38,0.00,,---,0.00,VWS V13.01,2013-03-13 09:55:00,
2013-03-13 06:01:00,33.1,10.2,29.48,NNW,329,0.0,0.0,38,0.00,,---,0.00,VWS V13.01,2013-03-13 10:01:00,
2013-03-13 06:06:00,33.1,9.7,29.48,NNW,329,0.0,0.0,37,0.00,,---,0.00,VWS V13.01,2013-03-13 10:06:00,
2013-03-13 06:11:00,32.9,9.5,29.48,NNW,329,0.0,0.0,37,0.00,,---,0.00,VWS V13.01,2013-03-13 10:11:00,
2013-03-13 06:16:00,32.7,9.3,29.48,NNW,329,0.0,0.0,37,0.00,,---,0.00,VWS V13.01,2013-03-13 10:16:00,
2013-03-13 06:22:00,32.7,9.3,29.48,NNW,329,0.0,0.0,37,0.00,,---,0.00,VWS V13.01,2013-03-13 10:22:00,
2013-03-13 06:27:00,32.5,9.8,29.48,NNW,329,0.0,0.0,38,0.00,,---,0.00,VWS V13.01,2013-03-13 10:27:00,
2013-03-13 06:32:00,32.5,9.8,29.48,NNW,329,0.0,0.0,38,0.00,,---,0.00,VWS V13.01,2013-03-13 10:32:00,
2013-03-13 06:37:00,32.4,9.6,29.48,NNW,329,0.0,0.0,38,0.00,,---,0.00,VWS V13.01,2013-03-13 10:37:00,
2013-03-13 06:42:00,32.0,9.3,29.48,NNW,329,0.0,0.0,38,0.00,,---,0.00,VWS V13.01,2013-03-13 10:42:00,
2013-03-13 06:47:00,31.8,9.1,29.48,NNW,329,0.0,0.0,38,0.00,,---,0.00,VWS V13.01,2013-03-13 10:47:00,
2013-03-13 06:52:00,31.6,9.5,29.48,NNW,329,0.0,0.0,39,0.00,,---,0.00,VWS V13.01,2013-03-13 10:52:00,
2013-03-13 06:57:00,31.5,9.9,29.48,NNW,329,0.0,0.0,40,0.00,,---,0.00,VWS V13.01,2013-03-13 10:57:00,
2013-03-13 07:02:00,31.5,9.9,29.48,NNW,329,0.0,0.0,40,0.00,,---,0.00,VWS V13.01,2013-03-13 11:02:00,
2013-03-13 07:07:00,31.3,9.8,29.48,NNW,329,0.0,0.0,40,0.00,,---,0.00,VWS V13.01,2013-03-13 11:07:00,
2013-03-13 07:12:00,31.1,9.6,29.48,NNW,329,0.0,0.0,40,0.00,,---,0.00,VWS V13.01,2013-03-13 11:12:00,
2013-03-13 07:17:00,30.9,9.4,29.48,NNW,329,0.0,0.0,40,0.00,,---,0.00,VWS V13.01,2013-03-13 11:17:00,
2013-03-13 07:22:00,30.7,9.3,29.48,NNW,329,0.0,0.0,40,0.00,,---,0.00,VWS V13.01,2013-03-13 11:22:00,
2013-03-13 07:27:00,30.6,9.1,29.48,NNW,329,0.0,0.0,40,0.00,,---,0.00,VWS V13.01,2013-03-13 11:27:00,
2013-03-13 07:32:00,30.6,9.1,29.48,NNW,329,0.0,0.0,40,0.00,,---,0.00,VWS V13.01,2013-03-13 11:32:00,
2013-03-13 07:37:00,30.7,9.3,29.48,NNW,329,0.0,0.0,40,0.00,,---,0.00,VWS V13.01,2013-03-13 11:37:00,
2013-03-13 07:42:00,31.1,10.2,29.48,NNW,329,0.0,0.0,41,0.00,,---,0.00,VWS V13.01,2013-03-13 11:42:00,
2013-03-13 07:47:00,31.5,10.5,29.51,NNW,329,0.0,0.0,41,0.00,,---,0.00,VWS V13.01,2013-03-13 11:47:00,
2013-03-13 07:52:00,32.5,11.5,29.51,NNW,329,0.0,0.0,41,0.00,,---,0.00,VWS V13.01,2013-03-13 11:52:00,
2013-03-13 07:57:00,33.3,12.1,29.51,West,262,0.0,0.0,41,0.00,,---,0.00,VWS V13.01,2013-03-13 11:57:00,
2013-03-13 08:02:00,33.4,11.7,29.51,West,262,0.0,0.0,40,0.00,,---,0.00,VWS V13.01,2013-03-13 12:02:00,
2013-03-13 08:07:00,33.8,11.5,29.51,West,264,0.0,0.0,39,0.00,,---,0.00,VWS V13.01,2013-03-13 12:07:00,
2013-03-13 08:12:00,34.0,11.1,29.51,NW,323,0.0,0.0,38,0.00,,---,0.00,VWS V13.01,2013-03-13 12:12:00,
2013-03-13 08:17:00,34.5,9.7,29.51,NW,306,0.0,0.0,35,0.00,,---,0.00,VWS V13.01,2013-03-13 12:17:00,
2013-03-13 08:22:00,35.4,8.5,29.51,WNW,295,0.0,0.0,32,0.00,,---,0.00,VWS V13.01,2013-03-13 12:22:00,
2013-03-13 08:28:00,36.3,7.9,29.51,WNW,289,0.0,0.0,30,0.00,,---,0.00,VWS V13.01,2013-03-13 12:28:00,
2013-03-13 08:33:00,36.5,7.3,29.51,NW,321,0.0,0.0,29,0.00,,---,0.00,VWS V13.01,2013-03-13 12:33:00,
2013-03-13 08:38:00,36.9,3.5,29.51,NNW,333,0.0,0.0,24,0.00,,---,0.00,VWS V13.01,2013-03-13 12:38:00,
2013-03-13 08:43:00,37.0,1.7,29.51,WNW,285,0.0,0.0,22,0.00,,---,0.00,VWS V13.01,2013-03-13 12:43:00,
2013-03-13 08:48:00,37.8,4.2,29.51,West,273,0.0,0.0,24,0.00,,---,0.00,VWS V13.01,2013-03-13 12:48:00,
2013-03-13 08:53:00,38.7,2.1,29.51,NW,304,0.0,2.7,21,0.00,,---,0.00,VWS V13.01,2013-03-13 12:53:00,
2013-03-13 08:58:00,40.3,3.5,29.51,NNW,342,0.0,2.7,21,0.00,,---,0.00,VWS V13.01,2013-03-13 12:58:00,
2013-03-13 09:03:00,40.6,3.8,29.51,NNE,21,0.0,0.0,21,0.00,,---,0.00,VWS V13.01,2013-03-13 13:03:00,
2013-03-13 09:08:00,41.2,4.2,29.51,NE,43,0.0,2.7,21,0.00,,---,0.00,VWS V13.01,2013-03-13 13:08:00,
2013-03-13 09:13:00,41.7,1.4,29.51,North,6,0.0,3.1,18,0.00,,---,0.00,VWS V13.01,2013-03-13 13:13:00,
2013-03-13 09:18:00,41.9,1.5,29.51,NNW,328,3.6,3.6,18,0.00,,---,0.00,VWS V13.01,2013-03-13 13:18:00,
2013-03-13 09:23:00,44.2,3.4,29.51,East,87,0.0,0.0,18,0.00,,---,0.00,VWS V13.01,2013-03-13 13:23:00,
2013-03-13 09:28:00,45.3,3.1,29.51,NNW,346,0.0,0.0,17,0.00,,---,0.00,VWS V13.01,2013-03-13 13:28:00,
2013-03-13 09:34:00,43.7,3.0,29.51,WNW,294,0.0,0.0,18,0.00,,---,0.00,VWS V13.01,2013-03-13 13:34:00,
2013-03-13 09:39:00,44.2,3.4,29.51,North,357,0.0,0.0,18,0.00,,---,0.00,VWS V13.01,2013-03-13 13:39:00,
2013-03-13 09:44:00,46.0,3.7,29.51,NNW,342,0.0,0.0,17,0.00,,---,0.00,VWS V13.01,2013-03-13 13:44:00,
2013-03-13 09:49:00,43.5,2.8,29.51,NW,315,0.0,2.7,18,0.00,,---,0.00,VWS V13.01,2013-03-13 13:49:00,
2013-03-13 09:54:00,42.4,1.9,29.51,North,350,0.0,2.7,18,0.00,,---,0.00,VWS V13.01,2013-03-13 13:54:00,
2013-03-13 09:59:00,44.8,2.6,29.51,North,349,0.0,2.7,17,0.00,,---,0.00,VWS V13.01,2013-03-13 13:59:00,
2013-03-13 10:04:00,47.3,4.7,29.48,West,276,0.0,0.0,17,0.00,,---,0.00,VWS V13.01,2013-03-13 14:04:00,
2013-03-13 10:09:00,46.9,4.4,29.48,North,357,2.7,2.7,17,0.00,,---,0.00,VWS V13.01,2013-03-13 14:09:00,
2013-03-13 10:15:00,47.7,5.0,29.48,NNW,344,0.0,2.7,17,0.00,,---,0.00,VWS V13.01,2013-03-13 14:15:00,
2013-03-13 10:20:00,45.1,2.9,29.48,WNW,284,0.0,0.0,17,0.00,,---,0.00,VWS V13.01,2013-03-13 14:20:00,
2013-03-13 10:25:00,45.1,2.9,29.48,WNW,284,0.0,0.0,17,0.00,,---,0.00,VWS V13.01,2013-03-13 14:25:00,
2013-03-13 10:30:00,45.1,2.9,29.48,WSW,239,0.0,0.0,17,0.00,,---,0.00,VWS V13.01,2013-03-13 14:30:00,
2013-03-13 10:35:00,47.5,4.8,29.48,NNW,331,0.0,2.7,17,0.00,,---,0.00,VWS V13.01,2013-03-13 14:35:00,
2013-03-13 10:40:00,49.3,5.0,29.48,NNW,340,0.0,0.0,16,0.00,,---,0.00,VWS V13.01,2013-03-13 14:40:00,
2013-03-13 10:45:00,51.3,6.6,29.48,NW,322,0.0,0.0,16,0.00,,---,0.00,VWS V13.01,2013-03-13 14:45:00,
2013-03-13 10:50:00,54.9,8.1,29.48,NW,315,0.0,0.0,15,0.00,,---,0.00,VWS V13.01,2013-03-13 14:50:00,
2013-03-13 10:55:00,54.9,8.1,29.48,West,281,0.0,2.7,15,0.00,,---,0.00,VWS V13.01,2013-03-13 14:55:00,
2013-03-13 11:00:00,52.0,7.2,29.48,WSW,246,0.0,0.0,16,0.00,,---,0.00,VWS V13.01,2013-03-13 15:00:00,
2013-03-13 11:05:00,53.2,8.2,29.48,West,275,0.0,0.0,16,0.00,,---,0.00,VWS V13.01,2013-03-13 15:05:00,
2013-03-13 11:10:00,52.7,7.8,29.48,WNW,294,0.0,0.0,16,0.00,,---,0.00,VWS V13.01,2013-03-13 15:10:00,
2013-03-13 11:15:00,52.7,7.8,29.48,NNW,333,0.0,3.1,16,0.00,,---,0.00,VWS V13.01,2013-03-13 15:15:00,
2013-03-13 11:20:00,52.7,7.8,29.48,NW,304,0.0,0.0,16,0.00,,---,0.00,VWS V13.01,2013-03-13 15:20:00,
2013-03-13 11:25:00,52.9,7.9,29.48,NW,306,0.0,3.6,16,0.00,,---,0.00,VWS V13.01,2013-03-13 15:25:00,
2013-03-13 11:31:00,52.0,7.2,29.48,NW,315,0.0,3.6,16,0.00,,---,0.00,VWS V13.01,2013-03-13 15:31:00,
2013-03-13 11:36:00,52.5,7.6,29.48,WNW,298,0.0,3.6,16,0.00,,---,0.00,VWS V13.01,2013-03-13 15:36:00,
2013-03-13 11:42:00,52.5,7.6,29.48,WNW,293,0.0,0.0,16,0.00,,---,0.00,VWS V13.01,2013-03-13 15:42:00,
2013-03-13 11:47:00,52.5,7.6,29.48,WNW,302,0.0,2.7,16,0.00,,---,0.00,VWS V13.01,2013-03-13 15:47:00,
2013-03-13 11:52:00,50.2,5.7,29.48,North,357,0.0,2.7,16,0.00,,---,0.00,VWS V13.01,2013-03-13 15:52:00,
2013-03-13 11:57:00,54.5,7.8,29.48,WNW,293,0.0,2.7,15,0.00,,---,0.00,VWS V13.01,2013-03-13 15:57:00,
2013-03-13 12:02:00,54.1,7.5,29.48,WNW,296,0.0,0.0,15,0.00,,---,0.00,VWS V13.01,2013-03-13 16:02:00,
2013-03-13 12:07:00,54.0,7.4,29.48,WSW,245,0.0,3.6,15,0.00,,---,0.00,VWS V13.01,2013-03-13 16:07:00,
2013-03-13 12:12:00,52.3,7.5,29.48,WNW,286,0.0,4.0,16,0.00,,---,0.00,VWS V13.01,2013-03-13 16:12:00,
2013-03-13 12:17:00,52.3,7.5,29.45,West,270,0.0,4.0,16,0.00,,---,0.00,VWS V13.01,2013-03-13 16:17:00,
2013-03-13 12:22:00,53.1,8.1,29.45,NNW,330,0.0,2.7,16,0.00,,---,0.00,VWS V13.01,2013-03-13 16:22:00,
2013-03-13 12:27:00,55.4,8.5,29.45,West,267,0.0,5.6,15,0.00,,---,0.00,VWS V13.01,2013-03-13 16:27:00,
2013-03-13 12:32:00,54.3,7.7,29.45,NW,311,0.0,5.6,15,0.00,,---,0.00,VWS V13.01,2013-03-13 16:32:00,
2013-03-13 12:37:00,54.5,7.8,29.45,West,266,0.0,5.6,15,0.00,,---,0.00,VWS V13.01,2013-03-13 16:37:00,
2013-03-13 12:42:00,55.6,8.7,29.45,NNW,333,2.7,7.4,15,0.00,,---,0.00,VWS V13.01,2013-03-13 16:42:00,
2013-03-13 12:47:00,57.7,8.9,29.45,West,259,0.0,7.4,14,0.00,,---,0.00,VWS V13.01,2013-03-13 16:47:00,
2013-03-13 12:52:00,58.8,9.8,29.45,West,271,5.1,7.4,14,0.00,,---,0.00,VWS V13.01,2013-03-13 16:52:00,
2013-03-13 12:58:00,58.8,9.8,29.45,WNW,283,0.0,7.4,14,0.00,,---,0.00,VWS V13.01,2013-03-13 16:58:00,
2013-03-13 13:03:00,58.1,9.2,29.45,WNW,291,4.5,4.5,14,0.00,,---,0.00,VWS V13.01,2013-03-13 17:03:00,
2013-03-13 13:08:00,58.1,9.2,29.45,WNW,284,0.0,6.5,14,0.00,,---,0.00,VWS V13.01,2013-03-13 17:08:00,
2013-03-13 13:13:00,52.2,-13.2,29.45,NW,315,0.0,6.5,6,0.00,,---,0.00,VWS V13.01,2013-03-13 17:13:00,
2013-03-13 13:18:00,49.3,5.0,29.45,WNW,282,0.0,6.5,16,0.00,,---,0.00,VWS V13.01,2013-03-13 17:18:00,
2013-03-13 13:23:00,51.3,6.6,29.45,WNW,296,2.7,3.6,16,0.00,,---,0.00,VWS V13.01,2013-03-13 17:23:00,
2013-03-13 13:28:00,50.5,6.0,29.45,North,353,0.0,4.0,16,0.00,,---,0.00,VWS V13.01,2013-03-13 17:28:00,
2013-03-13 13:33:00,53.1,8.1,29.45,NW,324,3.6,4.0,16,0.00,,---,0.00,VWS V13.01,2013-03-13 17:33:00,
2013-03-13 13:38:00,54.3,7.7,29.45,WNW,302,8.9,8.9,15,0.00,,---,0.00,VWS V13.01,2013-03-13 17:38:00,
2013-03-13 13:43:00,50.4,5.9,29.45,WNW,285,0.0,7.4,16,0.00,,---,0.00,VWS V13.01,2013-03-13 17:43:00,
2013-03-13 13:48:00,52.3,7.5,29.45,West,279,0.0,7.4,16,0.00,,---,0.00,VWS V13.01,2013-03-13 17:48:00,
2013-03-13 13:53:00,56.1,9.1,29.45,West,278,0.0,7.4,15,0.00,,---,0.00,VWS V13.01,2013-03-13 17:53:00,
2013-03-13 13:59:00,58.8,9.8,29.45,North,353,0.0,7.4,14,0.00,,---,0.00,VWS V13.01,2013-03-13 17:59:00,
2013-03-13 14:04:00,61.0,11.5,29.42,WSW,250,0.0,3.1,14,0.00,,---,0.00,VWS V13.01,2013-03-13 18:04:00,
2013-03-13 14:09:00,55.6,8.7,29.42,WNW,293,0.0,5.6,15,0.00,,---,0.00,VWS V13.01,2013-03-13 18:09:00,
2013-03-13 14:14:00,54.9,8.1,29.42,NW,310,0.0,10.3,15,0.00,,---,0.00,VWS V13.01,2013-03-13 18:14:00,
2013-03-13 14:19:00,54.9,8.1,29.42,West,277,0.0,10.3,15,0.00,,---,0.00,VWS V13.01,2013-03-13 18:19:00,
2013-03-13 14:24:00,52.7,7.8,29.42,NE,42,0.0,6.0,16,0.00,,---,0.00,VWS V13.01,2013-03-13 18:24:00,
2013-03-13 14:29:00,52.0,7.2,29.42,West,274,0.0,6.0,16,0.00,,---,0.00,VWS V13.01,2013-03-13 18:29:00,
2013-03-13 14:34:00,51.6,6.9,29.42,WNW,295,0.0,10.3,16,0.00,,---,0.00,VWS V13.01,2013-03-13 18:34:00,
2013-03-13 14:39:00,50.5,6.0,29.42,WNW,289,2.7,10.3,16,0.00,,---,0.00,VWS V13.01,2013-03-13 18:39:00,
2013-03-13 14:44:00,49.5,5.2,29.42,WNW,291,0.0,7.8,16,0.00,,---,0.00,VWS V13.01,2013-03-13 18:44:00,
2013-03-13 14:49:00,48.6,4.4,29.42,East,89,0.0,7.8,16,0.00,,---,0.00,VWS V13.01,2013-03-13 18:49:00,
2013-03-13 14:54:00,47.8,5.2,29.42,NW,317,0.0,10.7,17,0.00,,---,0.00,VWS V13.01,2013-03-13 18:54:00,
2013-03-13 14:59:00,47.3,4.7,29.42,WNW,286,2.7,10.7,17,0.00,,---,0.00,VWS V13.01,2013-03-13 18:59:00,
2013-03-13 15:04:00,47.3,4.7,29.42,West,272,0.0,6.0,17,0.00,,---,0.00,VWS V13.01,2013-03-13 19:04:00,
2013-03-13 15:09:00,47.3,4.7,29.42,WNW,299,0.0,6.0,17,0.00,,---,0.00,VWS V13.01,2013-03-13 19:09:00,
2013-03-13 15:14:00,47.1,4.6,29.42,West,280,0.0,6.9,17,0.00,,---,0.00,VWS V13.01,2013-03-13 19:14:00,
2013-03-13 15:19:00,47.1,4.6,29.42,West,276,0.0,8.3,17,0.00,,---,0.00,VWS V13.01,2013-03-13 19:19:00,
2013-03-13 15:25:00,47.1,4.6,29.42,West,280,0.0,8.3,17,0.00,,---,0.00,VWS V13.01,2013-03-13 19:25:00,
2013-03-13 15:30:00,47.3,4.7,29.42,WNW,287,0.0,8.3,17,0.00,,---,0.00,VWS V13.01,2013-03-13 19:30:00,
2013-03-13 15:35:00,47.3,4.7,29.42,WNW,287,0.0,8.3,17,0.00,,---,0.00,VWS V13.01,2013-03-13 19:35:00,
2013-03-13 15:40:00,47.7,5.0,29.42,WNW,298,0.0,2.7,17,0.00,,---,0.00,VWS V13.01,2013-03-13 19:40:00,
2013-03-13 15:45:00,47.8,5.2,29.42,NW,318,0.0,6.9,17,0.00,,---,0.00,VWS V13.01,2013-03-13 19:45:00,
2013-03-13 15:50:00,47.8,5.2,29.42,NNW,329,0.0,6.9,17,0.00,,---,0.00,VWS V13.01,2013-03-13 19:50:00,
2013-03-13 15:55:00,48.2,4.1,29.42,NW,325,0.0,7.4,16,0.00,,---,0.00,VWS V13.01,2013-03-13 19:55:00,
2013-03-13 16:00:00,48.6,4.4,29.39,WNW,293,0.0,0.0,16,0.00,,---,0.00,VWS V13.01,2013-03-13 20:00:00,
2013-03-13 17:37:00,46.0,3.7,29.42,West,270,3.1,3.1,17,0.00,,---,0.00,VWS V13.01,2013-03-13 21:37:00,
2013-03-13 17:42:00,46.0,3.7,29.42,WNW,301,0.0,0.0,17,0.00,,---,0.00,VWS V13.01,2013-03-13 21:42:00,
2013-03-13 17:47:00,45.9,3.5,29.42,NW,320,0.0,3.1,17,0.00,,---,0.00,VWS V13.01,2013-03-13 21:47:00,
2013-03-13 17:52:00,45.5,3.2,29.42,NW,308,0.0,3.1,17,0.00,,---,0.00,VWS V13.01,2013-03-13 21:52:00,
2013-03-13 17:58:00,45.3,3.1,29.42,NW,317,0.0,3.1,17,0.00,,---,0.00,VWS V13.01,2013-03-13 21:58:00,
2013-03-13 18:03:00,45.1,2.9,29.42,North,350,0.0,4.5,17,0.00,,---,0.00,VWS V13.01,2013-03-13 22:03:00,
2013-03-13 18:08:00,45.1,2.9,29.42,NW,320,0.0,4.5,17,0.00,,---,0.00,VWS V13.01,2013-03-13 22:08:00,
2013-03-13 18:13:00,44.8,2.6,29.42,NNW,339,0.0,6.0,17,0.00,,---,0.00,VWS V13.01,2013-03-13 22:13:00,
2013-03-13 18:18:00,44.6,2.5,29.42,WNW,291,0.0,6.0,17,0.00,,---,0.00,VWS V13.01,2013-03-13 22:18:00,
2013-03-13 18:23:00,44.4,3.6,29.42,WNW,294,0.0,0.0,18,0.00,,---,0.00,VWS V13.01,2013-03-13 22:23:00,
2013-03-13 18:28:00,44.4,3.6,29.42,NNW,343,0.0,5.1,18,0.00,,---,0.00,VWS V13.01,2013-03-13 22:28:00,
2013-03-13 18:33:00,44.4,3.6,29.42,West,272,0.0,5.1,18,0.00,,---,0.00,VWS V13.01,2013-03-13 22:33:00,
2013-03-13 18:38:00,44.4,3.6,29.42,WNW,298,0.0,5.1,18,0.00,,---,0.00,VWS V13.01,2013-03-13 22:38:00,
2013-03-13 18:43:00,44.2,3.4,29.42,West,276,0.0,0.0,18,0.00,,---,0.00,VWS V13.01,2013-03-13 22:43:00,
2013-03-13 18:48:00,43.9,3.1,29.42,WNW,295,0.0,0.0,18,0.00,,---,0.00,VWS V13.01,2013-03-13 22:48:00,
2013-03-13 18:54:00,43.9,3.1,29.42,West,281,0.0,0.0,18,0.00,,---,0.00,VWS V13.01,2013-03-13 22:54:00,
2013-03-13 18:59:00,43.9,3.1,29.42,WNW,283,0.0,0.0,18,0.00,,---,0.00,VWS V13.01,2013-03-13 22:59:00,
2013-03-13 19:04:00,42.3,1.8,29.42,West,259,0.0,0.0,18,0.00,,---,0.00,VWS V13.01,2013-03-13 23:04:00,
2013-03-13 19:09:00,42.3,1.8,29.42,West,259,0.0,0.0,18,0.00,,---,0.00,VWS V13.01,2013-03-13 23:09:00,
2013-03-13 19:14:00,42.3,1.8,29.42,WNW,295,0.0,0.0,18,0.00,,---,0.00,VWS V13.01,2013-03-13 23:14:00,
2013-03-13 19:19:00,42.3,1.8,29.45,WNW,293,0.0,0.0,18,0.00,,---,0.00,VWS V13.01,2013-03-13 23:19:00,
2013-03-13 19:24:00,42.3,1.8,29.45,WNW,299,0.0,0.0,18,0.00,,---,0.00,VWS V13.01,2013-03-13 23:24:00,
2013-03-13 19:29:00,42.3,1.8,29.45,WNW,301,0.0,0.0,18,0.00,,---,0.00,VWS V13.01,2013-03-13 23:29:00,
2013-03-13 19:34:00,42.3,1.8,29.45,WNW,300,0.0,0.0,18,0.00,,---,0.00,VWS V13.01,2013-03-13 23:34:00,
2013-03-13 19:39:00,42.3,1.8,29.45,WNW,302,0.0,0.0,18,0.00,,---,0.00,VWS V13.01,2013-03-13 23:39:00,
2013-03-13 19:44:00,41.2,0.9,29.45,WNW,291,0.0,6.9,18,0.00,,---,0.00,VWS V13.01,2013-03-13 23:44:00,
2013-03-13 19:49:00,41.2,0.9,29.45,NW,306,0.0,6.9,18,0.00,,---,0.00,VWS V13.01,2013-03-13 23:49:00,
2013-03-13 19:54:00,41.2,0.9,29.45,WNW,289,0.0,6.9,18,0.00,,---,0.00,VWS V13.01,2013-03-13 23:54:00,
2013-03-13 19:59:00,41.2,0.9,29.45,NW,316,0.0,6.9,18,0.00,,---,0.00,VWS V13.01,2013-03-13 23:59:00,
2013-03-13 20:05:00,41.2,0.9,29.45,WNW,293,0.0,0.0,18,0.00,,---,0.00,VWS V13.01,2013-03-14 00:05:00,
2013-03-13 20:10:00,41.2,0.9,29.45,WNW,294,0.0,0.0,18,0.00,,---,0.00,VWS V13.01,2013-03-14 00:10:00,
2013-03-13 20:15:00,41.2,0.9,29.45,WSW,252,0.0,0.0,18,0.00,,---,0.00,VWS V13.01,2013-03-14 00:15:00,
2013-03-13 20:20:00,41.2,0.9,29.45,West,260,0.0,0.0,18,0.00,,---,0.00,VWS V13.01,2013-03-14 00:20:00,
2013-03-13 20:25:00,40.1,0.0,29.45,West,273,0.0,5.1,18,0.00,,---,0.00,VWS V13.01,2013-03-14 00:25:00,
2013-03-13 20:30:00,40.5,0.3,29.45,WNW,285,0.0,8.7,18,0.00,,---,0.00,VWS V13.01,2013-03-14 00:30:00,
2013-03-13 20:35:00,40.6,0.5,29.45,WNW,298,0.0,8.7,18,0.00,,---,0.00,VWS V13.01,2013-03-14 00:35:00,
2013-03-13 20:40:00,40.6,0.5,29.45,NW,314,0.0,0.0,18,0.00,,---,0.00,VWS V13.01,2013-03-14 00:40:00,
2013-03-13 20:45:00,40.6,0.5,29.45,West,266,0.0,0.0,18,0.00,,---,0.00,VWS V13.01,2013-03-14 00:45:00,
2013-03-13 20:50:00,40.6,0.5,29.45,WNW,284,0.0,4.5,18,0.00,,---,0.00,VWS V13.01,2013-03-14 00:50:00,
2013-03-13 20:55:00,40.6,0.5,29.45,West,272,0.0,6.0,18,0.00,,---,0.00,VWS V13.01,2013-03-14 00:55:00,
2013-03-13 21:01:00,40.6,0.5,29.45,West,267,0.0,2.7,18,0.00,,---,0.00,VWS V13.01,2013-03-14 01:01:00,
2013-03-13 21:06:00,40.1,0.0,29.45,West,261,0.0,5.1,18,0.00,,---,0.00,VWS V13.01,2013-03-14 01:06:00,
2013-03-13 21:11:00,40.1,0.0,29.45,NNW,334,0.0,5.1,18,0.00,,---,0.00,VWS V13.01,2013-03-14 01:11:00,
2013-03-13 21:16:00,39.4,-0.6,29.45,NW,308,0.0,5.1,18,0.00,,---,0.00,VWS V13.01,2013-03-14 01:16:00,
2013-03-13 21:21:00,39.0,0.3,29.45,WNW,284,0.0,6.5,19,0.00,,---,0.00,VWS V13.01,2013-03-14 01:21:00,
2013-03-13 21:26:00,38.8,0.1,29.45,West,264,0.0,6.5,19,0.00,,---,0.00,VWS V13.01,2013-03-14 01:26:00,
2013-03-13 21:31:00,38.5,-0.2,29.48,WNW,289,0.0,6.5,19,0.00,,---,0.00,VWS V13.01,2013-03-14 01:31:00,
2013-03-13 21:36:00,38.5,-0.2,29.48,WNW,292,0.0,6.5,19,0.00,,---,0.00,VWS V13.01,2013-03-14 01:36:00,
2013-03-13 21:42:00,38.5,-0.2,29.48,NW,317,0.0,0.0,19,0.00,,---,0.00,VWS V13.01,2013-03-14 01:42:00,
2013-03-13 21:47:00,38.5,-0.2,29.48,NW,305,0.0,0.0,19,0.00,,---,0.00,VWS V13.01,2013-03-14 01:47:00,
2013-03-13 21:52:00,38.5,-0.2,29.48,WNW,286,0.0,0.0,19,0.00,,---,0.00,VWS V13.01,2013-03-14 01:52:00,
2013-03-13 21:58:00,38.5,-0.2,29.48,NW,307,0.0,0.0,19,0.00,,---,0.00,VWS V13.01,2013-03-14 01:58:00,
2013-03-13 22:03:00,38.5,-0.2,29.48,WNW,294,0.0,0.0,19,0.00,,---,0.00,VWS V13.01,2013-03-14 02:03:00,
2013-03-13 22:08:00,38.5,-0.2,29.48,WNW,297,0.0,0.0,19,0.00,,---,0.00,VWS V13.01,2013-03-14 02:08:00,
2013-03-13 22:13:00,38.5,-0.2,29.48,NW,313,0.0,0.0,19,0.00,,---,0.00,VWS V13.01,2013-03-14 02:13:00,
2013-03-13 22:18:00,38.5,-0.2,29.48,WNW,293,0.0,4.0,19,0.00,,---,0.00,VWS V13.01,2013-03-14 02:18:00,
2013-03-13 22:23:00,38.5,-0.2,29.48,WNW,298,0.0,0.0,19,0.00,,---,0.00,VWS V13.01,2013-03-14 02:23:00,
2013-03-13 22:28:00,38.5,-0.2,29.48,NW,314,0.0,4.5,19,0.00,,---,0.00,VWS V13.01,2013-03-14 02:28:00,
2013-03-13 22:33:00,38.5,-0.2,29.48,WNW,300,0.0,4.5,19,0.00,,---,0.00,VWS V13.01,2013-03-14 02:33:00,
2013-03-13 22:38:00,36.0,-2.3,29.48,NW,304,0.0,4.5,19,0.00,,---,0.00,VWS V13.01,2013-03-14 02:38:00,
2013-03-13 22:43:00,36.0,-2.3,29.48,WNW,286,0.0,0.0,19,0.00,,---,0.00,VWS V13.01,2013-03-14 02:43:00,
2013-03-13 22:48:00,35.6,-2.6,29.48,NW,313,0.0,0.0,19,0.00,,---,0.00,VWS V13.01,2013-03-14 02:48:00,
2013-03-13 22:53:00,35.6,-2.6,29.48,WNW,284,0.0,0.0,19,0.00,,---,0.00,VWS V13.01,2013-03-14 02:53:00,
2013-03-13 22:58:00,35.4,-1.6,29.48,West,273,0.0,0.0,20,0.00,,---,0.00,VWS V13.01,2013-03-14 02:58:00,
2013-03-13 23:03:00,35.4,-1.6,29.48,WSW,255,0.0,0.0,20,0.00,,---,0.00,VWS V13.01,2013-03-14 03:03:00,
2013-03-13 23:08:00,35.4,-1.6,29.48,WNW,290,0.0,0.0,20,0.00,,---,0.00,VWS V13.01,2013-03-14 03:08:00,
2013-03-13 23:14:00,35.4,-1.6,29.48,West,267,0.0,0.0,20,0.00,,---,0.00,VWS V13.01,2013-03-14 03:14:00,
2013-03-13 23:19:00,35.6,-2.6,29.48,West,270,0.0,0.0,19,0.00,,---,0.00,VWS V13.01,2013-03-14 03:19:00,
2013-03-13 23:24:00,35.6,-2.6,29.48,West,279,0.0,0.0,19,0.00,,---,0.00,VWS V13.01,2013-03-14 03:24:00,
2013-03-13 23:29:00,35.6,-2.6,29.48,WNW,288,0.0,0.0,19,0.00,,---,0.00,VWS V13.01,2013-03-14 03:29:00,
2013-03-13 23:34:00,35.2,-1.8,29.48,West,274,0.0,0.0,20,0.00,,---,0.00,VWS V13.01,2013-03-14 03:34:00,
2013-03-13 23:39:00,35.1,-2.0,29.48,WSW,258,0.0,0.0,20,0.00,,---,0.00,VWS V13.01,2013-03-14 03:39:00,
2013-03-13 23:44:00,35.1,-2.0,29.48,NW,319,0.0,0.0,20,0.00,,---,0.00,VWS V13.01,2013-03-14 03:44:00,
2013-03-13 23:49:00,34.7,-2.3,29.48,WNW,285,0.0,0.0,20,0.00,,---,0.00,VWS V13.01,2013-03-14 03:49:00,
2013-03-13 23:54:00,34.7,-2.3,29.48,WNW,284,0.0,0.0,20,0.00,,---,0.00,VWS V13.01,2013-03-14 03:54:00,
2013-03-13 23:59:00,34.5,-2.4,29.48,West,277,0.0,0.0,20,0.00,,---,0.00,VWS V13.01,2013-03-14 03:59:00,